Darstellungsparameter: Aktuell verwendete Einstellungen:
Skalierung der Graphiken ... ?
xyx+y,   Skalierungsfaktor:      Skalierung: Modus: x, Faktor: 1
Darstellungszeitraum ... ?
Vom - - bis: - -   Zeitraum: 30.11.2011 - 30.11.2011
Min/Max/Avg-Anzeige ... ?
Zeige MMA aktuell
Zeige MMA Monat
Zeige MMA alles
Zeige --A aktuell
Zeige --A Monat
Zeige --A alles
Keine MMA-Anzeige
MMA:
Average (ber die Originaldaten)
MMA-Basis: 30.11.2011 - 30.11.2011
Quicknavigation für Darstellung... ?
Tage:      1T, 2T, 3T, 5T -1T -2T -3T -5T +1T +2T +3T +5T
Wochen: 1W, 2W, 3W -1W -2W -3W +1W +2W +3W
Monate: 1M, 3M, 6M -1M -3M -6M +1M +3M +6M
Jahre:    1J, 3J, 5J, 10J -1J -3J -5J -10J +1J +3J +5J +10J
Nutze für die Darstellung ... ?
Originaldaten oder Mittelwerte auf ...
Stundenbasis Tagesbasis Wochenbasis
Monatsbasis Jahresbasis      Datenbasis: Original-Daten
Darstellen als:
Statistik (Auto) Statistik J:M      Darstellung:
Zur Graphik,    zurück zur Übersicht aller Sensoren.
 
Tabellarische Datenbersicht: ?
 
Sensor: Nr:Datum:Temp:Abs-Feuchte:Windchill:Wind:
Aussen-T/F 1 30-11-2011 00:11:02 6.7 C 7.07 g/m*3 6.7 C 0 km/h
2 30-11-2011 00:23:02 7 C 7.13 g/m*3 7 C 0 km/h
3 30-11-2011 00:35:01 8.1 C 7.49 g/m*3 8.1 C 0 km/h
4 30-11-2011 00:47:02 7.9 C 7.23 g/m*3 7.9 C 0 km/h
5 30-11-2011 00:59:02 7.9 C 7.23 g/m*3 7.9 C 0 km/h
6 30-11-2011 01:11:02 8.2 C 7.29 g/m*3 8.2 C 0 km/h
7 30-11-2011 01:23:02 8.4 C 7.21 g/m*3 8.4 C 0 km/h
8 30-11-2011 01:35:03 8.4 C 7.21 g/m*3 8.4 C 0 km/h
9 30-11-2011 01:47:02 9 C 7.23 g/m*3 9 C 0 km/h
10 30-11-2011 01:59:02 9.2 C 7.05 g/m*3 9.2 C 0 km/h
11 30-11-2011 02:11:01 9.1 C 7.01 g/m*3 9.1 C 0 km/h
12 30-11-2011 02:23:02 9.3 C 7.1 g/m*3 9.3 C 0 km/h
13 30-11-2011 02:35:02 9.2 C 6.97 g/m*3 9.2 C 0 km/h
14 30-11-2011 02:47:01 9.3 C 7.01 g/m*3 9.3 C 0 km/h
15 30-11-2011 02:59:01 9.5 C 7.19 g/m*3 9.5 C 0 km/h
16 30-11-2011 03:11:02 9.5 C 7.1 g/m*3 9.5 C 0 km/h
17 30-11-2011 03:23:02 9.5 C 7.1 g/m*3 9.5 C 0 km/h
18 30-11-2011 03:35:01 9.3 C 7.01 g/m*3 9.3 C 0 km/h
19 30-11-2011 03:47:01 9.2 C 7.05 g/m*3 9.2 C 0 km/h
20 30-11-2011 03:59:02 9 C 6.96 g/m*3 9 C 0 km/h
21 30-11-2011 04:11:01 8.7 C 7.01 g/m*3 8.7 C 0 km/h
22 30-11-2011 04:23:01 8.6 C 6.96 g/m*3 8.6 C 0 km/h
23 30-11-2011 04:35:02 8.6 C 7.13 g/m*3 8.6 C 0 km/h
24 30-11-2011 04:47:01 8.5 C 7.09 g/m*3 8.5 C 0 km/h
25 30-11-2011 04:59:01 8.1 C 6.91 g/m*3 8.1 C 0 km/h
Sensor: Nr:Datum:Temp:Abs-Feuchte:Windchill:Wind:
Aussen-T/F 26 30-11-2011 05:11:02 8.2 C 7.03 g/m*3 8.2 C 0 km/h
27 30-11-2011 05:23:01 7.8 C 6.94 g/m*3 7.8 C 0 km/h
28 30-11-2011 05:35:01 6.8 C 6.58 g/m*3 6.8 C 0 km/h
29 30-11-2011 05:47:01 6.8 C 6.65 g/m*3 6.8 C 0 km/h
30 30-11-2011 05:59:01 6.3 C 6.51 g/m*3 6.3 C 0 km/h
31 30-11-2011 06:11:02 6.2 C 6.47 g/m*3 6.2 C 0 km/h
32 30-11-2011 06:23:01 6 C 6.46 g/m*3 6 C 0 km/h
33 30-11-2011 06:35:01 6 C 6.46 g/m*3 6 C 0 km/h
34 30-11-2011 06:47:01 6 C 6.46 g/m*3 6 C 0 km/h
35 30-11-2011 06:59:01 5.6 C 6.43 g/m*3 5.6 C 0 km/h
36 30-11-2011 07:11:01 5.5 C 6.39 g/m*3 5.5 C 0 km/h
37 30-11-2011 07:23:02 5.3 C 6.31 g/m*3 5.3 C 0 km/h
38 30-11-2011 07:35:01 5.3 C 6.31 g/m*3 5.3 C 0 km/h
39 30-11-2011 07:47:02 4.8 C 6.17 g/m*3 4.8 C 0 km/h
40 30-11-2011 07:59:02 5 C 6.18 g/m*3 5 C 0 km/h
41 30-11-2011 08:11:01 4.6 C 6.09 g/m*3 4.6 C 0 km/h
42 30-11-2011 08:23:02 4.5 C 6.05 g/m*3 4.5 C 0 km/h
43 30-11-2011 08:35:01 4 C 5.85 g/m*3 4 C 0 km/h
44 30-11-2011 08:47:02 4.1 C 5.89 g/m*3 4.1 C 0 km/h
45 30-11-2011 08:59:02 4.8 C 6.17 g/m*3 4.8 C 0 km/h
46 30-11-2011 09:11:01 4.7 C 6.13 g/m*3 4.7 C 0 km/h
47 30-11-2011 09:23:01 4.6 C 6.09 g/m*3 4.6 C 0 km/h
48 30-11-2011 09:35:02 4 C 5.85 g/m*3 4 C 0 km/h
49 30-11-2011 09:47:01 3.3 C 5.58 g/m*3 3.3 C 0 km/h
50 30-11-2011 09:59:01 3.7 C 5.73 g/m*3 3.7 C 0 km/h
Sensor: Nr:Datum:Temp:Abs-Feuchte:Windchill:Wind:
Aussen-T/F 51 30-11-2011 10:11:02 4 C 5.85 g/m*3 4 C 0 km/h
52 30-11-2011 10:23:01 3.9 C 5.87 g/m*3 3.9 C 0 km/h
53 30-11-2011 10:35:01 3.9 C 5.87 g/m*3 3.9 C 0 km/h
54 30-11-2011 10:47:01 4.2 C 5.93 g/m*3 4.2 C 0 km/h
55 30-11-2011 10:59:01 4.2 C 5.93 g/m*3 4.2 C 0 km/h
56 30-11-2011 11:11:02 4.3 C 5.97 g/m*3 4.3 C 0 km/h
57 30-11-2011 11:23:01 4.3 C 5.97 g/m*3 4.3 C 0 km/h
58 30-11-2011 11:35:01 4.9 C 6.21 g/m*3 4.9 C 0 km/h
59 30-11-2011 11:47:01 5.3 C 6.38 g/m*3 5.3 C 0 km/h
60 30-11-2011 11:59:01 5.5 C 6.39 g/m*3 5.5 C 0 km/h
61 30-11-2011 12:11:01 5.6 C 6.43 g/m*3 5.6 C 0 km/h
62 30-11-2011 12:23:02 6.2 C 6.55 g/m*3 6.2 C 0 km/h
63 30-11-2011 12:35:01 6.1 C 6.28 g/m*3 6.1 C 0 km/h
64 30-11-2011 12:47:02 5.8 C 6.02 g/m*3 5.8 C 0 km/h
65 30-11-2011 12:59:02 5.8 C 6.02 g/m*3 5.8 C 0 km/h
66 30-11-2011 13:11:01 6.2 C 6.03 g/m*3 6.2 C 0 km/h
67 30-11-2011 13:23:01 6.6 C 6.11 g/m*3 6.6 C 0 km/h
68 30-11-2011 13:35:01 7 C 6.12 g/m*3 7 C 0 km/h
69 30-11-2011 13:47:01 7.9 C 6.16 g/m*3 7.9 C 0 km/h
70 30-11-2011 13:59:02 8.4 C 6.02 g/m*3 8.4 C 0 km/h
71 30-11-2011 14:11:01 8.7 C 5.88 g/m*3 8.7 C 0 km/h
72 30-11-2011 14:23:01 8.5 C 5.64 g/m*3 8.5 C 0 km/h
73 30-11-2011 14:35:01 8.2 C 5.78 g/m*3 8.2 C 0 km/h
74 30-11-2011 14:47:02 8.2 C 5.86 g/m*3 8.2 C 0 km/h
75 30-11-2011 14:59:02 8.1 C 5.91 g/m*3 8.1 C 0 km/h
Sensor: Nr:Datum:Temp:Abs-Feuchte:Windchill:Wind:
Aussen-T/F 76 30-11-2011 15:11:01 7.8 C 5.88 g/m*3 7.8 C 0 km/h
77 30-11-2011 15:23:01 7.4 C 5.73 g/m*3 7.4 C 0 km/h
78 30-11-2011 15:35:02 7.1 C 5.69 g/m*3 7.1 C 0 km/h
79 30-11-2011 15:47:01 6.6 C 5.74 g/m*3 6.6 C 0 km/h
80 30-11-2011 15:59:01 6.2 C 5.74 g/m*3 6.2 C 0 km/h
81 30-11-2011 16:11:02 5.8 C 5.66 g/m*3 5.8 C 0 km/h
82 30-11-2011 16:23:01 5.3 C 5.54 g/m*3 5.3 C 0 km/h
83 30-11-2011 16:35:02 5.1 C 5.54 g/m*3 5.1 C 0 km/h
84 30-11-2011 16:47:01 4.8 C 5.57 g/m*3 4.8 C 0 km/h
85 30-11-2011 16:59:01 4.7 C 5.6 g/m*3 4.7 C 0 km/h
86 30-11-2011 17:11:02 4.3 C 5.45 g/m*3 4.3 C 0 km/h
87 30-11-2011 17:23:01 4.1 C 5.44 g/m*3 4.1 C 0 km/h
88 30-11-2011 17:35:01 4.2 C 5.48 g/m*3 4.2 C 0 km/h
89 30-11-2011 17:47:01 4.1 C 5.44 g/m*3 4.1 C 0 km/h
90 30-11-2011 17:59:01 3.5 C 5.29 g/m*3 3.5 C 0 km/h
91 30-11-2011 18:11:01 2.6 C 5.03 g/m*3 2.6 C 0 km/h
92 30-11-2011 18:23:02 1.7 C 4.74 g/m*3 1.7 C 0 km/h
93 30-11-2011 18:35:01 1.6 C 4.7 g/m*3 1.6 C 0 km/h
94 30-11-2011 18:47:02 1.5 C 4.73 g/m*3 1.5 C 0 km/h
95 30-11-2011 18:59:02 1.2 C 4.63 g/m*3 1.2 C 0 km/h
96 30-11-2011 19:11:01 1 C 4.57 g/m*3 1 C 0 km/h
97 30-11-2011 19:23:02 0.7 C 4.53 g/m*3 0.7 C 0 km/h
98 30-11-2011 19:35:01 0.6 C 4.49 g/m*3 0.6 C 0 km/h
99 30-11-2011 19:47:02 0.5 C 4.46 g/m*3 0.5 C 0 km/h
100 30-11-2011 19:59:02 0.1 C 4.34 g/m*3 0.1 C 0 km/h
Sensor: Nr:Datum:Temp:Abs-Feuchte:Windchill:Wind:
Aussen-T/F 101 30-11-2011 20:11:01 0 C 4.31 g/m*3 0 C 0 km/h
102 30-11-2011 20:23:01 0 C 4.36 g/m*3 0 C 0 km/h
103 30-11-2011 20:35:02 0.1 C 4.39 g/m*3 0.1 C 0 km/h
104 30-11-2011 20:47:01 0 C 4.36 g/m*3 0 C 0 km/h
105 30-11-2011 20:59:01 0.1 C 4.44 g/m*3 0.1 C 0 km/h
106 30-11-2011 21:11:01 -0.5 C 4.26 g/m*3 -0.5 C 0 km/h
107 30-11-2011 21:23:01 -0.5 C 4.26 g/m*3 -0.5 C 0 km/h
108 30-11-2011 21:35:02 -0.7 C 4.2 g/m*3 -0.7 C 0 km/h
109 30-11-2011 21:47:01 -0.6 C 4.23 g/m*3 -0.6 C 0 km/h
110 30-11-2011 21:59:01 -0.9 C 4.14 g/m*3 -0.9 C 0 km/h
111 30-11-2011 22:11:02 -0.6 C 4.23 g/m*3 -0.6 C 0 km/h
112 30-11-2011 22:23:01 -0.9 C 4.14 g/m*3 -0.9 C 0 km/h
113 30-11-2011 22:35:02 -0.7 C 4.25 g/m*3 -0.7 C 0 km/h
114 30-11-2011 22:47:01 0.1 C 4.49 g/m*3 0.1 C 0 km/h
115 30-11-2011 22:59:01 -0.5 C 4.31 g/m*3 -0.5 C 0 km/h
116 30-11-2011 23:11:02 -1.3 C 4.07 g/m*3 -1.3 C 0 km/h
117 30-11-2011 23:23:01 -1.2 C 4.1 g/m*3 -1.2 C 0 km/h
118 30-11-2011 23:35:01 -1.7 C 3.96 g/m*3 -1.7 C 0 km/h
119 30-11-2011 23:47:01 -1.2 C 4.1 g/m*3 -1.2 C 0 km/h
120 30-11-2011 23:59:01 -1.3 C 4.07 g/m*3 -1.3 C 0 km/h

Legende:
   Min
   Max


Maximal/Minimal-Werte vom 30.11.2011 - 30.11.2011

Sensor Min Max Avg
Temp
(Aussen-T/F)
-1.7 °C
30-11-2011  23:35:01
9.5 °C
30-11-2011  02:59:01
4.85 °C
Abs-Feuchte
(Aussen-T/F)
3.96 g/m*3
30-11-2011  23:35:01
7.49 g/m*3
30-11-2011  00:35:01
5.79 g/m*3
Windchill
(Aussen-T/F)
-1.7 C
30-11-2011  23:35:01
9.5 C
30-11-2011  02:59:01
4.81 C

Die Daten stammen von einer Davis Vantage Pro 2 Wetter-Station und werden unter Linux mit der Software wview2wettercgi und aufbereitet. Alle Angaben erfolgen ohne Gewähr für ihre Vollständigkeit oder Richtigkeit.
Kontakt: Rainer Krienke krienke@uni-koblenz.de . Meine Webseiten an der Uni Koblenz oder privat.
Version: $Revision: 0.78 $